This is the latest recevied weather packets stored in our database for station/object KA0EGE. If no packets are shown the sender has not sent any weather packets the latest 10 day(s).
| Time | Temp. | Humidity | Pressure | Rain* | Wind** | Luminosity | Snow |
|---|---|---|---|---|---|---|---|
| 1777951782 | 12.22° C | 89% | 1018.3 hPa | 0 mm | - | 0 W/m² | - |
| 1777951479 | 12.78° C | 89% | 1018.4 hPa | 0 mm | - | 0 W/m² | - |
| 1777951175 | 12.22° C | 89% | 1018.1 hPa | 0 mm | - | 0 W/m² | - |
| 1777950872 | 12.78° C | 88% | 1018.5 hPa | 0 mm | - | 0 W/m² | - |
| 1777950569 | 12.78° C | 88% | 1018.3 hPa | 0 mm | - | 0 W/m² | - |
| 1777950265 | 12.78° C | 88% | 1018.6 hPa | 0 mm | - | 0 W/m² | - |
| 1777949961 | 12.78° C | 88% | 1018.6 hPa | 0 mm | - | 0 W/m² | - |
| 1777949658 | 12.78° C | 87% | 1018.8 hPa | 0 mm | - | 0 W/m² | - |
| 1777949357 | 13.33° C | 87% | 1018.8 hPa | 0 mm | - | 0 W/m² | - |
| 1777949054 | 13.33° C | 86% | 1018.7 hPa | 0 mm | - | 0 W/m² | - |
| 1777948751 | 13.33° C | 84% | 1018.7 hPa | 0 mm | - | 0 W/m² | - |
| 1777948448 | 13.89° C | 84% | 1018.7 hPa | 0 mm | - | 0 W/m² | - |
| 1777948145 | 13.89° C | 83% | 1018.8 hPa | 0 mm | - | 0 W/m² | - |
| 1777947842 | 13.89° C | 83% | 1018.6 hPa | 0 mm | - | 0 W/m² | - |
| 1777947539 | 13.89° C | 82% | 1018.4 hPa | 0 mm | - | 0 W/m² | - |
| 1777947235 | 13.89° C | 81% | 1018.5 hPa | 0 mm | - | 0 W/m² | - |
| 1777946932 | 14.44° C | 80% | 1018.6 hPa | 0 mm | - | 0 W/m² | - |
| 1777946627 | 14.44° C | 80% | 1018.5 hPa | 0 mm | - | 0 W/m² | - |
| 1777946324 | 15° C | 79% | 1018.6 hPa | 0 mm | - | 0 W/m² | - |
| 1777946021 | 15° C | 78% | 1018.5 hPa | 0 mm | - | 0 W/m² | - |
| 1777945719 | 15° C | 78% | 1018.5 hPa | 0 mm | - | 0 W/m² | - |
| 1777945416 | 15° C | 77% | 1018.6 hPa | 0 mm | - | 0 W/m² | - |
| 1777945112 | 15° C | 76% | 1018.4 hPa | 0 mm | - | 0 W/m² | - |
| 1777944809 | 15.56° C | 76% | 1018.4 hPa | 0 mm | - | 0 W/m² | - |
| 1777944508 | 15.56° C | 75% | 1018.3 hPa | 0 mm | - | 0 W/m² | - |
* Rain latest hour (hover to see other rain measurements)
** Current wind speed in m/s (hover to see current wind gust speed)